Hourly Data Report for February 06, 2017

All times are specified in Local Standard Time (LST). Add 1 hour to adjust for Daylight Saving Time where and when it is observed.

TORONTO CITY
ONTARIO

43°40'00.000" N
79°24'00.000" W
112.50 m
6158355
71508
XTO

Download Data

Hourly Data (February 2017)
Hourly Data Report for February 6, 2017
TIME Temp Definition
°C
Dew Point Definition
°C
Rel Hum Definition
%
Wind Dir Definition
10's deg

Wind Spd Definition
km/h
Visibility Definition
km
Stn Press Definition
kPa
Hmdx Definition


Wind Chill Definition


Weather Definition


00:00 -2.1 -8.8 60 LegendMM LegendMM   100.34     LegendNANA
01:00 -2.5 -10.3 55 LegendMM LegendMM   100.38     LegendNANA
02:00 -2.6 -10.2 56 LegendMM LegendMM   100.39     LegendNANA
03:00 -2.7 -9.6 59 LegendMM LegendMM   100.47     LegendNANA
04:00 -3.2 -9.7 61 LegendMM LegendMM   100.41     LegendNANA
05:00 -3.2 -8.5 67 LegendMM LegendMM   100.45     LegendNANA
06:00 -2.9 -8.5 65 LegendMM LegendMM   100.51     LegendNANA
07:00 -3.2 -8.6 66 LegendMM LegendMM   100.58     LegendNANA
08:00 -3.1 -8.1 69 LegendMM LegendMM   100.53     LegendNANA
09:00 -2.4 -8.0 65 LegendMM LegendMM   100.58     LegendNANA
10:00 -1.9 -8.3 62 LegendMM LegendMM   100.56     LegendNANA
11:00 -0.9 -7.3 62 LegendMM LegendMM   100.48     LegendNANA
12:00 -0.7 -8.0 58 LegendMM LegendMM   100.43     LegendNANA
13:00 -0.6 -7.3 61 LegendMM LegendMM   100.36     LegendNANA
14:00 0.1 -8.3 53 LegendMM LegendMM   100.26     LegendNANA
15:00 1.0 -7.2 54 LegendMM LegendMM   100.23     LegendNANA
16:00 1.2 -7.2 53 LegendMM LegendMM   100.22     LegendNANA
17:00 1.1 -6.1 59 LegendMM LegendMM   100.18     LegendNANA
18:00 1.1 -4.4 67 LegendMM LegendMM   100.15     LegendNANA
19:00 1.6 -6.8 53 LegendMM LegendMM   100.07     LegendNANA
20:00 1.5 -4.6 64 LegendMM LegendMM   100.06     LegendNANA
21:00 1.7 -4.7 62 LegendMM LegendMM   100.03     LegendNANA
22:00 1.8 -5.0 61 LegendMM LegendMM   100.02     LegendNANA
23:00 1.9 -4.1 64 LegendMM LegendMM   99.96     LegendNANA

Notes on Data Quality.

Legend

  • E = Estimated
  • M = Missing
  • NA = Not Available
Date modified: